Change the Weather History Date:

Saturday, November 24, 2012

  Actual Average Record
Temperature  
Mean Temperature 32 °F -  
Max Temperature 33 °F 48 °F 68 °F (2001)
Min Temperature 30 °F 29 °F 1 °F (1956)
Degree Days  
Heating Degree Days 34    
Moisture  
Dew Point 20 °F    
Average Humidity 65    
Maximum Humidity 75    
Minimum Humidity 59    
Precipitation  
Precipitation 0.00 in - - ()
Sea Level Pressure  
Sea Level Pressure 30.16 in    
Wind  
Wind Speed 9 mph (West)    
Max Wind Speed 13 mph    
Max Gust Speed 20 mph    
Visibility 9 miles    
Events Snow    
Averages and records for this station are not official NWS values.
T = Trace of Precipitation, MM = Missing Value Source: NWS Daily Summary

Daily Weather History Graph

Daily Weather History Graph

Search for Another Location

Airport or City:

Trip Planner

Search our weather history database for the weather conditions in past years. The results will help you decide how hot, cold, wet, or windy it might be!

Date:

Astronomy

Nov. 24, 2012 Rise Set
Actual Time 7:25 AM EST 5:08 PM EST
Civil Twilight 6:56 AM EST 5:38 PM EST
Nautical Twilight 6:23 AM EST 6:11 PM EST
Astronomical Twilight 5:50 AM EST 6:43 PM EST
Moon 2:52 PM EST (11/24) 3:42 AM EST (11/24)
Length of Visible Light 10h 42m
Length of Day
9h 43m
Waxing Gibbous, 87% of the Moon is Illuminated
Nov 24
Waxing Gibbous
Nov 28
Full
Dec 6
Last Quarter
Dec 13
New
Dec 20
First Quarter

Hourly Weather History & Observations

Time (EST) Temp. Windchill Dew Point Humidity Pressure Visibility Wind Dir Wind Speed Gust Speed Precip Events Conditions
12:53 AM 30.9 °F 22.2 °F 19.0 °F 61% 30.11 in 10.0 mi West 10.4 mph - N/A   Overcast
1:53 AM 30.0 °F 21.1 °F 19.0 °F 64% 30.12 in 10.0 mi West 10.4 mph - N/A   Overcast
2:53 AM 30.0 °F 21.1 °F 19.0 °F 64% 30.13 in 10.0 mi West 10.4 mph 19.6 mph N/A   Overcast
3:53 AM 30.0 °F 21.1 °F 19.0 °F 64% 30.13 in 10.0 mi West 10.4 mph - N/A   Overcast
4:53 AM 30.0 °F 21.1 °F 19.9 °F 66% 30.14 in 10.0 mi West 10.4 mph - N/A   Overcast
5:53 AM 30.0 °F 21.1 °F 19.9 °F 66% 30.14 in 10.0 mi West 10.4 mph - N/A   Overcast
6:53 AM 30.0 °F 21.7 °F 19.9 °F 66% 30.16 in 10.0 mi West 9.2 mph - N/A   Overcast
7:53 AM 30.0 °F 24.1 °F 21.0 °F 69% 30.17 in 10.0 mi WNW 5.8 mph - N/A   Overcast
8:53 AM 30.0 °F 21.1 °F 21.0 °F 69% 30.18 in 8.0 mi West 10.4 mph - 0.00 in Snow Light Snow
9:53 AM 30.0 °F 22.4 °F 21.9 °F 72% 30.19 in 6.0 mi West 8.1 mph 16.1 mph 0.00 in   Haze
10:53 AM 30.0 °F 21.1 °F 21.9 °F 72% 30.20 in 3.0 mi WNW 10.4 mph 17.3 mph 0.00 in Snow Light Snow
11:24 AM 30.2 °F 20.8 °F 23.0 °F 75% 30.17 in 7.0 mi West 11.5 mph 17.3 mph 0.00 in   Overcast
11:53 AM 32.0 °F 23.0 °F 23.0 °F 69% 30.18 in 10.0 mi West 11.5 mph - 0.00 in   Overcast
12:53 PM 32.0 °F 23.0 °F 21.0 °F 64% 30.16 in 10.0 mi West 11.5 mph - N/A   Overcast
1:53 PM 32.0 °F 23.6 °F 21.0 °F 64% 30.16 in 10.0 mi West 10.4 mph - N/A   Overcast
2:53 PM 33.1 °F 23.9 °F 19.9 °F 59% 30.15 in 10.0 mi WNW 12.7 mph - N/A   Overcast
3:53 PM 32.0 °F 24.8 °F 19.0 °F 59% 30.17 in 10.0 mi WNW 8.1 mph 17.3 mph N/A   Overcast
4:53 PM 32.0 °F 24.8 °F 19.0 °F 59% 30.18 in 10.0 mi WNW 8.1 mph - N/A   Overcast
5:32 PM 30.2 °F 23.4 °F 19.4 °F 64% 30.15 in 10.0 mi WNW 6.9 mph - N/A   Overcast
5:53 PM 30.9 °F 22.8 °F 19.0 °F 61% 30.19 in 10.0 mi WNW 9.2 mph - N/A   Overcast
6:38 PM 30.2 °F 21.3 °F 19.4 °F 64% 30.16 in 10.0 mi West 10.4 mph - N/A   Overcast
6:53 PM 30.9 °F 25.2 °F 19.0 °F 61% 30.19 in 10.0 mi WNW 5.8 mph - N/A   Overcast
7:53 PM 30.9 °F 23.5 °F 19.0 °F 61% 30.18 in 10.0 mi West 8.1 mph - N/A   Overcast
8:53 PM 30.0 °F 22.4 °F 19.9 °F 66% 30.17 in 10.0 mi West 8.1 mph - N/A   Overcast
9:53 PM 30.0 °F 23.2 °F 19.0 °F 64% 30.17 in 10.0 mi West 6.9 mph - N/A   Overcast
10:07 PM 30.2 °F 24.3 °F 19.4 °F 64% 30.14 in 10.0 mi West 5.8 mph - N/A   Overcast
10:53 PM 30.0 °F 26.5 °F 19.0 °F 64% 30.14 in 10.0 mi West 3.5 mph - N/A   Overcast
11:53 PM 30.0 °F 25.2 °F 19.0 °F 64% 30.14 in 10.0 mi West 4.6 mph - N/A   Overcast